TIANTONG-1 3

Last updated on Sat Apr 13 2024 01:02:40 GMT+0100 (British Summer Time)

1 47321U 21003A 24103.53699671 -.00000164 00000+0 00000+0 0 9999 2 47321 3.0078 311.4647 0003217 53.2505 111.2864 1.00269753 11981
UTC large
Height (km)
Speed (km/s)
/
Latitude / Longitude
Inclination (degrees)
Orbital Period (minutes)
Azimuth
Elevation
Range (km)
Doppler Factor

Next 0 passes for location: London (51.5072 / 0.1276)

Sorry there are no passes over London.